N5ZKK Weather Reports


Display with metric or nautical units.
time (UTC)temp
F
wind
direction
speed
MPH
gust
MPH
rain 1hr
in
rain 24hr
in
rain mn
in
humidity
%
barometer
mb
20260901191031 99 75 4.0 6.0 0.00 0.00 0.00 38 1018.8
20260901190016 98 116 6.0 9.0 0.00 0.00 0.00 38 1019.0
20260901185651 98 111 4.0 7.0 0.00 0.00 0.00 38 1014.5
20260901185018 98 112 4.0 6.0 0.00 0.00 0.00 39 1019.2
20260901184020 96 148 4.0 6.0 0.00 0.00 0.00 41 1019.4
20260901183023 97 150 5.0 8.0 0.00 0.00 0.00 40 1019.5
20260901182651 96 130 4.0 7.0 0.00 0.00 0.00 40 1015.0
20260901182019 97 127 4.0 8.0 0.00 0.00 0.00 39 1019.6
20260901181047 96 135 5.0 10.0 0.00 0.00 0.00 40 1019.7
20260901180029 96 172 5.0 9.0 0.00 0.00 0.00 42 1019.8
20260901175651 96 170 4.0 6.0 0.00 0.00 0.00 41 1015.6
20260901175031 96 130 5.0 8.0 0.00 0.00 0.00 42 1020.0
20260901174033 96 153 4.0 8.0 0.00 0.00 0.00 41 1020.1
20260901173017 95 140 4.0 6.0 0.00 0.00 0.00 42 1020.3
20260901172651 95 113 4.0 6.0 0.00 0.00 0.00 42 1016.0
20260901172059 95 119 5.0 7.0 0.00 0.00 0.00 44 1020.4
20260901171021 95 77 4.0 7.0 0.00 0.00 0.00 43 1020.4
20260901170023 95 86 4.0 7.0 0.00 0.00 0.00 43 1020.4
20260901165651 94 56 4.0 6.0 0.00 0.00 0.00 43 1016.2
20260901165025 95 51 3.0 6.0 0.00 0.00 0.00 44 1020.6
20260901164027 97 117 5.0 6.0 0.00 0.00 0.00 41 1020.6
20260901163029 96 70 3.0 5.0 0.00 0.00 0.00 44 1020.6
20260901162651 96 45 2.0 7.0 0.00 0.00 0.00 45 1016.2
20260901162112 95 98 2.0 4.0 0.00 0.00 0.00 47 1020.6
20260901161016 96 88 3.0 5.0 0.00 0.00 0.00 46 1020.6
20260901160018 94 122 3.0 5.0 0.00 0.00 0.00 52 1020.6
20260901155651 93 79 2.0 5.0 0.00 0.00 0.00 53 1016.4
20260901155020 93 273 2.0 4.0 0.00 0.00 0.00 54 1020.6
20260901154016 92 113 2.0 5.0 0.00 0.00 0.00 57 1020.6
20260901153024 91 43 3.0 6.0 0.00 0.00 0.00 59 1020.6
20260901152651 90 37 2.0 4.0 0.00 0.00 0.00 60 1016.8
20260901152026 91 97 3.0 4.0 0.00 0.00 0.00 60 1020.6
20260901151048 90 98 3.0 5.0 0.00 0.00 0.00 63 1020.6